This is the latest recevied weather packets stored in our database for station/object DO1YM-13. If no packets are shown the sender has not sent any weather packets the latest 10 day(s).
| Time | Temp. | Humidity | Pressure | Rain* | Wind** | Luminosity | Snow |
|---|---|---|---|---|---|---|---|
| 1787476547 | 17.22° C | 68% | 1016.3 hPa | 0 mm | - | 112 W/m² | - |
| 1787476248 | 17.22° C | 67% | 1016.3 hPa | 0 mm | - | 217 W/m² | - |
| 1787475949 | 17.22° C | 67% | 1016.3 hPa | 0 mm | - | 232 W/m² | - |
| 1787475648 | 16.67° C | 67% | 1016.3 hPa | 0 mm | - | 180 W/m² | - |
| 1787475347 | 16.67° C | 68% | 1016.3 hPa | 0 mm | - | 243 W/m² | - |
| 1787475048 | 16.11° C | 72% | 1016.3 hPa | 0 mm | - | 219 W/m² | - |
| 1787474747 | 16.11° C | 70% | 1016.3 hPa | 0 mm | - | 154 W/m² | - |
| 1787474447 | 16.11° C | 71% | 1016.3 hPa | 0 mm | - | 102 W/m² | - |
| 1787474147 | 16.11° C | 71% | 1016.3 hPa | 0 mm | - | 79 W/m² | - |
| 1787473848 | 16.11° C | 71% | 1016.3 hPa | 0 mm | - | 120 W/m² | - |
| 1787473548 | 16.11° C | 72% | 1016.3 hPa | 0 mm | - | 156 W/m² | - |
| 1787473247 | 15.56° C | 74% | 1016.3 hPa | 0 mm | - | 127 W/m² | - |
| 1787472947 | 15.56° C | 73% | 1016.3 hPa | 0 mm | - | 51 W/m² | - |
| 1787472648 | 15.56° C | 73% | 1016.3 hPa | 0 mm | - | 117 W/m² | - |
| 1787472347 | 15.56° C | 73% | 1016.3 hPa | 0 mm | - | 104 W/m² | - |
| 1787472048 | 15.56° C | 72% | 1016.3 hPa | 0 mm | - | 69 W/m² | - |
| 1787471748 | 15.56° C | 73% | 1015.9 hPa | 0 mm | - | 94 W/m² | - |
| 1787471447 | 15.56° C | 72% | 1016.3 hPa | 0 mm | - | 90 W/m² | - |
| 1787471147 | 15.56° C | 72% | 1015.9 hPa | 0 mm | - | 97 W/m² | - |
| 1787470847 | 15.56° C | 73% | 1016.3 hPa | 0 mm | - | 91 W/m² | - |
| 1787470547 | 15.56° C | 72% | 1015.9 hPa | 0 mm | - | 112 W/m² | - |
| 1787470248 | 15.56° C | 73% | 1015.9 hPa | 0 mm | - | 133 W/m² | - |
| 1787469948 | 15.56° C | 73% | 1016.3 hPa | 0 mm | - | 148 W/m² | - |
| 1787469648 | 15.56° C | 73% | 1015.9 hPa | 0 mm | - | 126 W/m² | - |
| 1787469348 | 15.56° C | 75% | 1015.9 hPa | 0 mm | - | 115 W/m² | - |
* Rain latest hour (hover to see other rain measurements)
** Current wind speed in m/s (hover to see current wind gust speed)